Weather History for Beaufort, SC

Change the Weather History Date:

Tuesday, April 29, 2014

  Actual Average (KNBC) Record (KNBC)
Temperature  
Mean Temperature 74 °F -  
Max Temperature 78 °F 79 °F 93 °F (2002)
Min Temperature 71 °F 58 °F 39 °F (1967)
Cooling Degree Days 10    
Growing Degree Days 24 (Base 50)    
Moisture  
Dew Point 72 °F    
Average Humidity 90    
Maximum Humidity 100    
Minimum Humidity 78    
Precipitation  
Precipitation 0.00 in - - ()
Sea Level Pressure  
Sea Level Pressure 29.92 in    
Wind  
Wind Speed 8 mph (South)    
Max Wind Speed 14 mph    
Max Gust Speed 25 mph    
Visibility 7 miles    
Events      
Averages and records for this station are not official NWS values.
T = Trace of Precipitation, MM = Missing Value Source: NWS Daily Summary

Daily Weather History Graph

Daily Weather History Graph

Search for Another Location

Airport:

Trip Planner

Search our weather history database for the weather conditions in past years. The results will help you decide how hot, cold, wet, or windy it might be!

Date:

Astronomy

Apr. 29, 2014 Rise Set
Actual Time 6:37 AM EDT 8:02 PM EDT
Civil Twilight 6:11 AM EDT 8:28 PM EDT
Nautical Twilight 5:40 AM EDT 8:59 PM EDT
Astronomical Twilight 5:08 AM EDT 9:31 PM EDT
Moon 6:54 AM EDT (4/29) 8:39 PM EDT (4/29)
Length of Visible Light 14h 16m
Length of Day
13h 24m
New Moon, 0% of the Moon is Illuminated
Apr 29
New Moon
May 6
First Quarter
May 14
Full
May 21
Last Quarter
May 28
New

Hourly Weather History & Observations

Time (EDT) Temp. Dew Point Humidity Pressure Visibility Wind Dir Wind Speed Gust Speed Precip Events Conditions
12:15 AM 73.4 °F 69.8 °F 88% 29.91 in 7.0 mi South 4.6 mph - N/A   Clear
12:35 AM 73.4 °F 69.8 °F 88% 29.90 in 7.0 mi South 5.8 mph - N/A   Clear
12:55 AM 71.6 °F 69.8 °F 94% 29.89 in 7.0 mi South 5.8 mph - N/A   Clear
1:15 AM 73.4 °F 71.6 °F 94% 29.89 in 7.0 mi SSW 5.8 mph - N/A   Clear
1:35 AM 73.4 °F 71.6 °F 94% 29.87 in 7.0 mi South 8.1 mph - N/A   Clear
1:55 AM 73.4 °F 71.6 °F 94% 29.86 in 7.0 mi South 6.9 mph - N/A   Clear
2:15 AM 73.4 °F 71.6 °F 94% 29.87 in 7.0 mi SSW 9.2 mph - N/A   Clear
2:35 AM 73.4 °F 71.6 °F 94% 29.87 in 7.0 mi South 8.1 mph 18.4 mph N/A   Clear
2:55 AM 73.4 °F 71.6 °F 94% 29.88 in 7.0 mi SSW 9.2 mph 17.3 mph N/A   Clear
3:15 AM 73.4 °F 71.6 °F 94% 29.88 in 7.0 mi SSW 9.2 mph 18.4 mph N/A   Clear
3:35 AM 73.4 °F 71.6 °F 94% 29.88 in 7.0 mi SSW 8.1 mph - N/A   Clear
3:55 AM 73.4 °F 71.6 °F 94% 29.88 in 7.0 mi SSW 9.2 mph - N/A   Clear
4:15 AM 73.4 °F 71.6 °F 94% 29.87 in 7.0 mi South 8.1 mph - N/A   Clear
4:35 AM 73.4 °F 71.6 °F 94% 29.88 in 7.0 mi SSW 6.9 mph - N/A   Clear
5:15 AM 71.6 °F 71.6 °F 100% 29.88 in 7.0 mi SSW 8.1 mph - N/A   Scattered Clouds
5:35 AM 71.6 °F 71.6 °F 100% 29.88 in 7.0 mi SSW 10.4 mph - N/A   Scattered Clouds
5:55 AM 71.6 °F 71.6 °F 100% 29.89 in 5.0 mi SSW 9.2 mph - N/A   Scattered Clouds
6:15 AM 73.4 °F 71.6 °F 94% 29.89 in 7.0 mi South 6.9 mph 17.3 mph N/A   Mostly Cloudy
6:35 AM 73.4 °F 71.6 °F 94% 29.90 in 7.0 mi South 10.4 mph 18.4 mph N/A   Overcast
6:55 AM 73.4 °F 71.6 °F 94% 29.91 in 7.0 mi South 9.2 mph 16.1 mph N/A   Overcast
7:15 AM 73.4 °F 73.4 °F 100% 29.93 in 5.0 mi South 8.1 mph - N/A   Mostly Cloudy
7:35 AM 73.4 °F 73.4 °F 100% 29.94 in 5.0 mi SSW 6.9 mph - N/A   Mostly Cloudy
7:55 AM 73.4 °F 73.4 °F 100% 29.94 in 5.0 mi South 5.8 mph - N/A   Overcast
8:15 AM 73.4 °F 71.6 °F 94% 29.95 in 7.0 mi South 8.1 mph - N/A   Mostly Cloudy
8:55 AM 73.4 °F 73.4 °F 100% 29.95 in 7.0 mi South 9.2 mph - N/A   Clear
9:15 AM 75.2 °F 73.4 °F 94% 29.96 in 5.0 mi South 5.8 mph - N/A   Scattered Clouds
9:35 AM 73.4 °F 73.4 °F 100% 29.96 in 5.0 mi SSW 10.4 mph 16.1 mph N/A   Scattered Clouds
9:55 AM 75.2 °F 73.4 °F 94% 29.96 in 7.0 mi South 8.1 mph - N/A   Scattered Clouds
10:15 AM 77.0 °F 73.4 °F 89% 29.96 in 5.0 mi SSW 10.4 mph 16.1 mph N/A   Scattered Clouds
10:35 AM 77.0 °F 71.6 °F 83% 29.96 in 5.0 mi South 11.5 mph 19.6 mph N/A   Scattered Clouds
10:55 AM 77.0 °F 73.4 °F 89% 29.96 in 5.0 mi South 10.4 mph 18.4 mph N/A   Mostly Cloudy
11:15 AM 78.8 °F 71.6 °F 78% 29.95 in 7.0 mi South 10.4 mph 17.3 mph N/A   Mostly Cloudy
11:35 AM 78.8 °F 71.6 °F 78% 29.95 in 5.0 mi South 10.4 mph 16.1 mph N/A   Haze
11:55 AM 78.8 °F 73.4 °F 83% 29.95 in 5.0 mi South 5.8 mph - N/A   Haze
12:15 PM 78.8 °F 71.6 °F 78% 29.95 in 7.0 mi South 6.9 mph - N/A   Clear
12:35 PM 78.8 °F 73.4 °F 83% 29.94 in 5.0 mi South 6.9 mph - N/A   Haze
12:55 PM 78.8 °F 71.6 °F 78% 29.92 in 7.0 mi South 8.1 mph - N/A   Clear
1:15 PM 78.8 °F 71.6 °F 78% 29.92 in 5.0 mi South 5.8 mph - N/A   Haze
1:35 PM 78.8 °F 71.6 °F 78% 29.93 in 7.0 mi South 8.1 mph - N/A   Clear
1:55 PM 77.0 °F 71.6 °F 83% 29.93 in 7.0 mi South 8.1 mph - N/A   Clear
2:15 PM 77.0 °F 71.6 °F 83% 29.93 in 7.0 mi South 10.4 mph 17.3 mph N/A   Scattered Clouds
2:35 PM 77.0 °F 71.6 °F 83% 29.92 in 7.0 mi South 8.1 mph 17.3 mph N/A   Clear
2:55 PM 78.8 °F 71.6 °F 78% 29.92 in 7.0 mi South 11.5 mph 21.9 mph N/A   Clear
3:15 PM 78.8 °F 71.6 °F 78% 29.92 in 7.0 mi South 13.8 mph 19.6 mph N/A   Clear
3:35 PM 78.8 °F 71.6 °F 78% 29.92 in 7.0 mi South 10.4 mph 21.9 mph N/A   Clear
3:55 PM 78.8 °F 71.6 °F 78% 29.91 in 7.0 mi South 12.7 mph 18.4 mph N/A   Clear
4:15 PM 78.8 °F 71.6 °F 78% 29.92 in 5.0 mi South 10.4 mph 19.6 mph N/A   Haze
4:35 PM 77.0 °F 71.6 °F 83% 29.93 in 7.0 mi South 11.5 mph 20.7 mph N/A   Clear
4:55 PM 77.0 °F 71.6 °F 83% 29.93 in 7.0 mi South 8.1 mph 21.9 mph N/A   Clear
5:15 PM 77.0 °F 71.6 °F 83% 29.93 in 5.0 mi South 8.1 mph 18.4 mph N/A   Clear
5:35 PM 77.0 °F 71.6 °F 83% 29.93 in 7.0 mi South 6.9 mph 16.1 mph N/A   Clear
5:55 PM 77.0 °F 71.6 °F 83% 29.92 in 7.0 mi South 10.4 mph 17.3 mph N/A   Clear
6:15 PM 75.2 °F 71.6 °F 89% 29.92 in 7.0 mi South 9.2 mph - N/A   Clear
6:35 PM 75.2 °F 71.6 °F 89% 29.92 in 7.0 mi South 11.5 mph 18.4 mph N/A   Clear
6:55 PM 75.2 °F 71.6 °F 89% 29.93 in 5.0 mi South 9.2 mph 17.3 mph N/A   Clear
7:15 PM 73.4 °F 71.6 °F 94% 29.93 in 7.0 mi South 10.4 mph 16.1 mph N/A   Clear
7:35 PM 73.4 °F 71.6 °F 94% 29.93 in 7.0 mi South 11.5 mph 21.9 mph N/A   Clear
7:55 PM 73.4 °F 71.6 °F 94% 29.93 in 7.0 mi South 10.4 mph 19.6 mph N/A   Clear
8:15 PM 73.4 °F 71.6 °F 94% 29.93 in 7.0 mi South 12.7 mph 25.3 mph N/A   Clear
8:35 PM 73.4 °F 71.6 °F 94% 29.93 in 10.0 mi South 9.2 mph 16.1 mph N/A   Clear
8:55 PM 73.4 °F 71.6 °F 94% 29.92 in 7.0 mi South 12.7 mph 21.9 mph N/A   Clear
9:15 PM 75.2 °F 71.6 °F 89% 29.93 in 7.0 mi South 9.2 mph 20.7 mph N/A   Clear
9:35 PM 75.2 °F 71.6 °F 89% 29.94 in 7.0 mi South 8.1 mph 16.1 mph N/A   Clear
9:55 PM 75.2 °F 71.6 °F 89% 29.96 in 7.0 mi South 10.4 mph 18.4 mph N/A   Clear
10:15 PM 75.2 °F 71.6 °F 89% 29.97 in 7.0 mi South 9.2 mph 17.3 mph N/A   Clear
10:35 PM 75.2 °F 71.6 °F 89% 29.98 in 7.0 mi South 10.4 mph 18.4 mph N/A   Clear
10:55 PM 73.4 °F 71.6 °F 94% 29.98 in 7.0 mi South 8.1 mph 18.4 mph N/A   Clear
11:15 PM 73.4 °F 71.6 °F 94% 29.99 in 7.0 mi SSW 6.9 mph 17.3 mph N/A   Clear
11:35 PM 73.4 °F 71.6 °F 94% 29.98 in 7.0 mi South 9.2 mph 16.1 mph N/A   Scattered Clouds
11:55 PM 73.4 °F 71.6 °F 94% 29.98 in 7.0 mi SSW 6.9 mph 16.1 mph N/A   Scattered Clouds